| time (UTC) | temp F | wind direction | speed MPH | gust MPH | rain 1hr in | rain 24hr in | rain mn in | humidity % | barometer mb |
| 20260506101549 | 73 | 182 | 3.0 | 7.0 | 0.00 | 0.00 | 0.00 | 93 | 1010.4 |
| 20260506100050 | 73 | 182 | 4.0 | 8.0 | 0.00 | 0.00 | 0.00 | 93 | 1010.5 |
| 20260506094619 | 73 | 184 | 5.0 | 10.0 | 0.00 | 0.00 | 0.00 | 93 | 1010.2 |
| 20260506093047 | 73 | 185 | 6.0 | 12.0 | 0.00 | 0.00 | 0.00 | 92 | 1010.3 |
| 20260506091553 | 73 | 188 | 6.0 | 11.0 | 0.00 | 0.00 | 0.00 | 92 | 1010.4 |
| 20260506090051 | 73 | 180 | 7.0 | 14.0 | 0.00 | 0.00 | 0.00 | 92 | 1010.2 |
| 20260506084555 | 73 | 178 | 7.0 | 11.0 | 0.00 | 0.00 | 0.00 | 93 | 1010.3 |
| 20260506083053 | 73 | 184 | 7.0 | 13.0 | 0.00 | 0.00 | 0.00 | 93 | 1010.2 |
| 20260506081617 | 73 | 196 | 6.0 | 11.0 | 0.00 | 0.00 | 0.00 | 93 | 1010.5 |
| 20260506073051 | 73 | 180 | 6.0 | 15.0 | 0.00 | 0.00 | 0.00 | 94 | 1010.4 |
| 20260506071550 | 73 | 194 | 6.0 | 13.0 | 0.00 | 0.00 | 0.00 | 94 | 1010.6 |
| 20260506061551 | 72 | 164 | 5.0 | 9.0 | 0.00 | 0.00 | 0.00 | 93 | 1010.3 |
| 20260506060109 | 72 | 175 | 7.0 | 12.0 | 0.00 | 0.00 | 0.00 | 93 | 1009.8 |
| 20260506044544 | 74 | 175 | 7.0 | 11.0 | 0.00 | 0.00 | 0.00 | 91 | 1009.9 |
| 20260506043047 | 74 | 180 | 6.0 | 12.0 | 0.00 | 0.00 | 0.00 | 91 | 1009.9 |
| 20260506041550 | 74 | 188 | 7.0 | 14.0 | 0.00 | 0.00 | 0.00 | 90 | 1009.8 |
| 20260506040050 | 74 | 168 | 10.0 | 19.0 | 0.00 | 0.00 | 0.00 | 90 | 1009.4 |
| 20260506034546 | 75 | 173 | 9.0 | 16.0 | 0.00 | 0.00 | 0.00 | 90 | 1009.2 |
| 20260506033047 | 75 | 172 | 10.0 | 15.0 | 0.00 | 0.00 | 0.00 | 90 | 1009.0 |
| 20260506031551 | 75 | 166 | 7.0 | 13.0 | 0.00 | 0.00 | 0.00 | 90 | 1009.0 |
| 20260506030052 | 74 | 140 | 6.0 | 12.0 | 0.00 | 0.00 | 0.00 | 90 | 1008.7 |
| 20260506024557 | 74 | 147 | 2.0 | 7.0 | 0.00 | 0.00 | 0.00 | 90 | 1008.6 |
| 20260506023046 | 74 | 147 | 3.0 | 7.0 | 0.00 | 0.00 | 0.00 | 89 | 1008.3 |
| 20260506021545 | 74 | 163 | 1.0 | 5.0 | 0.00 | 0.00 | 0.00 | 89 | 1008.1 |
| 20260506020047 | 75 | 0 | 0.0 | 3.0 | 0.00 | 0.00 | 0.00 | 88 | 1007.9 |
| 20260506014549 | 75 | 0 | 0.0 | 5.0 | 0.00 | 0.00 | 0.00 | 87 | 1007.9 |
| 20260506013049 | 76 | 179 | 2.0 | 6.0 | 0.00 | 0.00 | 0.00 | 85 | 1007.8 |
| 20260506011547 | 77 | 170 | 3.0 | 9.0 | 0.00 | 0.00 | 0.00 | 83 | 1007.5 |
| 20260506010046 | 78 | 185 | 4.0 | 11.0 | 0.00 | 0.00 | 0.00 | 82 | 1007.5 |
| 20260506004552 | 79 | 164 | 5.0 | 11.0 | 0.00 | 0.00 | 0.00 | 81 | 1007.5 |
| 20260506003050 | 80 | 183 | 2.0 | 9.0 | 0.00 | 0.00 | 0.00 | 80 | 1007.6 |
| 20260506001550 | 80 | 199 | 5.0 | 9.0 | 0.00 | 0.00 | 0.00 | 79 | 1007.3 |
| 20260506000056 | 81 | 180 | 8.0 | 13.0 | 0.00 | 0.00 | 0.00 | 77 | 1007.1 |
| 20260505234551 | 81 | 186 | 8.0 | 14.0 | 0.00 | 0.00 | 0.00 | 78 | 1007.2 |
| 20260505233050 | 81 | 173 | 9.0 | 17.0 | 0.00 | 0.00 | 0.00 | 77 | 1006.9 |
| 20260505231601 | 80 | 192 | 8.0 | 19.0 | 0.00 | 0.00 | 0.00 | 77 | 1007.0 |
| 20260505230057 | 81 | 201 | 12.0 | 23.0 | 0.00 | 0.00 | 0.00 | 76 | 1006.9 |
| 20260505224554 | 82 | 164 | 11.0 | 22.0 | 0.00 | 0.00 | 0.00 | 76 | 1006.7 |
| 20260505223043 | 81 | 173 | 10.0 | 18.0 | 0.00 | 0.00 | 0.00 | 75 | 1006.9 |
| 20260505221552 | 81 | 192 | 12.0 | 21.0 | 0.00 | 0.00 | 0.00 | 76 | 1006.9 |
| 20260505220055 | 82 | 219 | 11.0 | 21.0 | 0.00 | 0.00 | 0.00 | 75 | 1006.9 |
| 20260505214544 | 81 | 188 | 9.0 | 19.0 | 0.00 | 0.00 | 0.00 | 77 | 1007.2 |
| 20260505213058 | 82 | 202 | 10.0 | 18.0 | 0.00 | 0.00 | 0.00 | 76 | 1007.2 |
| 20260505211550 | 81 | 198 | 12.0 | 19.0 | 0.00 | 0.00 | 0.00 | 76 | 1007.6 |
| 20260505210050 | 80 | 174 | 10.0 | 20.0 | 0.00 | 0.00 | 0.00 | 77 | 1007.8 |
| 20260505204550 | 81 | 188 | 11.0 | 18.0 | 0.00 | 0.00 | 0.00 | 77 | 1007.7 |
| 20260505203048 | 81 | 202 | 12.0 | 23.0 | 0.00 | 0.00 | 0.00 | 77 | 1007.7 |
| 20260505201549 | 80 | 221 | 12.0 | 26.0 | 0.00 | 0.00 | 0.00 | 78 | 1007.9 |
| 20260505200049 | 79 | 178 | 17.0 | 26.0 | 0.00 | 0.00 | 0.00 | 78 | 1008.0 |
| 20260505194552 | 80 | 201 | 13.0 | 26.0 | 0.00 | 0.00 | 0.00 | 79 | 1008.2 |
| 20260505193049 | 79 | 186 | 14.0 | 26.0 | 0.00 | 0.00 | 0.00 | 80 | 1008.5 |
| 20260505191608 | 78 | 183 | 16.0 | 29.0 | 0.00 | 0.00 | 0.00 | 80 | 1008.3 |
| 20260505190052 | 79 | 208 | 16.0 | 27.0 | 0.00 | 0.00 | 0.00 | 79 | 1008.3 |
| 20260505184550 | 78 | 219 | 15.0 | 23.0 | 0.00 | 0.00 | 0.00 | 81 | 1008.5 |
| 20260505183050 | 77 | 187 | 14.0 | 25.0 | 0.00 | 0.00 | 0.00 | 84 | 1008.8 |
| 20260505181551 | 76 | 190 | 12.0 | 28.0 | 0.00 | 0.00 | 0.00 | 85 | 1009.0 |
| 20260505174559 | 75 | 177 | 12.0 | 22.0 | 0.00 | 0.00 | 0.00 | 86 | 1009.2 |
| 20260505173047 | 74 | 177 | 16.0 | 23.0 | 0.00 | 0.00 | 0.00 | 86 | 1009.2 |
| 20260505171551 | 73 | 190 | 13.0 | 24.0 | 0.00 | 0.00 | 0.00 | 87 | 1009.4 |
| 20260505170049 | 73 | 221 | 12.0 | 21.0 | 0.00 | 0.00 | 0.00 | 88 | 1009.5 |
| 20260505164552 | 73 | 190 | 13.0 | 23.0 | 0.00 | 0.00 | 0.00 | 89 | 1009.6 |
| 20260505163046 | 72 | 178 | 10.0 | 21.0 | 0.00 | 0.00 | 0.00 | 89 | 1009.7 |
| 20260505161553 | 72 | 172 | 12.0 | 24.0 | 0.00 | 0.00 | 0.00 | 89 | 1009.7 |
| 20260505153050 | 71 | 191 | 10.0 | 19.0 | 0.00 | 0.00 | 0.00 | 90 | 1009.6 |
| 20260505151551 | 71 | 180 | 10.0 | 19.0 | 0.00 | 0.00 | 0.00 | 90 | 1009.7 |
| 20260505124550 | 69 | 185 | 13.0 | 20.0 | 0.00 | 0.00 | 0.00 | 88 | 1008.5 |
| 20260505123051 | 69 | 192 | 11.0 | 20.0 | 0.00 | 0.00 | 0.00 | 88 | 1008.4 |
| 20260505121554 | 69 | 184 | 11.0 | 22.0 | 0.00 | 0.00 | 0.00 | 88 | 1008.2 |
| 20260505120053 | 69 | 195 | 13.0 | 21.0 | 0.00 | 0.00 | 0.00 | 88 | 1008.2 |
| 20260505114555 | 69 | 166 | 12.0 | 22.0 | 0.00 | 0.00 | 0.00 | 89 | 1008.3 |
| 20260505113049 | 69 | 182 | 11.0 | 21.0 | 0.00 | 0.00 | 0.00 | 89 | 1008.2 |
| 20260505111547 | 69 | 194 | 11.0 | 22.0 | 0.00 | 0.00 | 0.00 | 89 | 1008.1 |